Temperature
9 8 8 8 8 8 8 8 8 8 8 8 8 9 9 9 9 9 9 9 10 10 10 9 9 9 9 9 9 9 9 9 9 9 9 10 10 10 10 10 10 10 10
9 8 8 7 7 7 7 7 8 8 8 8 8 8 8 9 9 9 9 9 9 9 9 9 9 9 9 9 9 9 9 9 9 9 9 9 9 10 10 10 10 10 10
8 8 7 7 7 7 7 7 7 7 8 8 8 8 8 8 8 8 8 9 8 8 8 9 9 8 9 9 9 9 9 9 9 9 9 10 10 9 9 10 10 10 9
8 7 7 7 7 7 7 7 7 7 7 7 7 7 7 8 8 8 8 8 8 8 8 8 8 8 8 8 8 8 8 9 8 8 9 10 10 9 9 9 9 9 9
8 7 7 7 6 6 6 7 7 7 7 7 7 7 7 7 8 8 8 8 8 8 8 8 8 8 8 8 8 8 8 8 8 9 9 9 9 9 9 9 9 9 9
7 7 7 7 6 6 6 6 6 7 7 7 6 7 7 7 7 7 7 7 7 8 7 7 7 8 7 8 8 8 8 8 8 8 9 9 9 9 9 9 9 9 9
7 7 7 6 6 6 6 6 6 6 6 6 6 6 6 7 7 7 7 7 7 7 7 7 7 7 8 8 7 8 8 8 8 8 8 8 9 9 9 9 9 9 9
7 7 6 6 6 6 6 6 6 6 6 6 6 6 6 6 7 7 6 7 7 7 7 7 7 7 7 7 7 7 8 8 8 8 8 8 8 9 9 9 9 8 8
7 6 6 6 6 6 5 5 5 5 6 6 6 6 6 6 6 6 6 6 6 7 7 7 7 7 7 7 7 7 7 8 8 8 8 8 8 8 9 9 9 9 8
6 6 6 6 6 5 5 5 5 5 5 5 5 6 6 6 6 6 6 6 6 6 7 7 7 7 7 7 7 7 7 7 8 8 8 8 8 8 8 8 8 8 8
6 6 6 6 5 5 5 5 5 5 5 5 5 5 5 5 5 5 5 5 6 6 6 6 6 6 6 7 7 7 7 7 7 8 8 8 8 8 8 8 8 8 8
6 6 5 5 5 5 5 5 5 5 5 5 5 5 5 5 5 5 5 5 5 6 6 6 6 6 6 6 6 7 7 7 7 7 7 8 7 7 8 8 8 8 8
6 5 5 5 5 5 4 4 5 5 5 5 5 5 5 5 5 5 5 5 5 5 5 5 5 6 6 6 6 6 6 7 7 7 7 7 7 7 7 7 7 8 8
5 5 5 4 4 4 4 4 4 4 4 4 4 4 4 4 4 4 4 5 5 5 5 5 5 5 5 5 6 6 6 6 6 7 7 7 7 7 7 7 7 7 7
5 4 4 4 4 4 4 4 4 4 4 4 4 4 4 4 4 4 4 4 4 4 5 5 5 5 5 5 5 5 6 6 6 6 6 6 7 7 7 7 7 7 7
4 4 4 4 4 4 4 4 4 4 4 4 4 4 4 4 4 4 4 4 4 4 4 4 4 4 5 5 5 5 5 5 5 6 6 6 6 6 6 7 7 7 7
4 4 4 4 3 3 3 3 3 3 4 3 3 3 3 4 4 3 3 4 4 4 4 4 4 4 5 5 5 5 5 5 5 5 6 6 6 6 6 6 6 6 6
4 4 3 3 3 3 3 3 3 3 3 3 3 3 3 3 3 3 3 3 3 3 3 4 4 4 4 4 4 4 4 5 5 5 5 5 6 6 6 6 6 6 6
4 3 3 3 3 3 3 3 3 3 3 3 3 3 3 3 3 3 3 3 3 3 3 3 3 3 4 4 4 4 4 4 5 5 5 5 5 5 5 5 6 5 6
3 3 3 3 3 3 3 3 3 3 2 2 2 2 2 2 2 2 2 2 2 3 3 3 3 3 3 3 4 4 4 4 4 5 5 5 5 5 5 5 5 5 5
3 3 3 3 3 3 3 3 2 2 2 2 2 2 2 2 2 2 2 2 2 2 3 3 3 3 3 3 3 3 4 4 4 4 4 4 4 5 5 5 5 5 5
3 3 3 3 3 2 2 2 2 2 2 2 2 2 2 1 1 1 2 2 2 2 2 2 2 2 2 3 3 3 3 4 4 4 4 4 4 4 5 5 5 5 5
2 2 2 2 2 2 2 2 2 2 2 1 1 1 1 1 1 1 1 1 1 2 1 1 2 2 2 2 3 3 3 3 4 4 4 4 4 4 4 4 4 4 4
2 2 2 2 2 2 1 1 1 1 1 1 1 1 1 1 1 1 1 1 1 1 1 1 1 1 2 2 2 2 3 3 3 3 3 4 4 4 4 4 4 4 4
2 1 1 1 1 1 1 1 1 1 0 0 0 0 0 0 0 0 0 0 1 1 1 1 1 1 1 1 2 2 2 2 3 3 3 3 3 3 3 3 3 3 3
1 1 1 1 0 0 0 0 0 -0 -0 -0 -0 -0 -0 -0 -0 -0 0 0 1 1 1 1 1 1 1 1 1 2 2 2 2 2 2 2 3 2 2 2 2 2 2
Wind_Speed
8 8 9 9 8 8 8 8 8 6 5 5 5 5 6 5 6 7 8 9 9 9 7 6 8 8 8 8 9 8 9 8 7 5 5 5 7 8 8 9 9 10 10
8 9 10 9 9 9 8 9 8 7 7 6 6 6 6 6 6 6 7 8 9 9 7 9 8 8 8 9 9 9 8 7 8 6 5 5 5 7 9 8 9 10 9
9 10 10 9 10 10 9 8 8 8 8 7 6 6 5 5 6 7 7 8 9 9 9 10 9 9 9 9 10 10 11 9 9 9 6 5 6 4 6 9 9 10 9
10 11 11 10 10 10 10 9 9 8 8 7 7 8 8 8 8 7 7 8 10 10 10 10 11 10 9 10 11 11 10 10 9 9 8 7 3 4 4 6 9 10 10
10 11 10 10 10 10 9 9 8 9 8 8 8 9 9 9 8 8 9 9 9 10 11 11 11 11 10 10 11 11 11 10 11 9 8 8 6 6 5 5 8 8 8
10 10 10 10 10 10 9 9 9 9 8 8 9 9 10 10 9 9 9 8 7 8 11 11 11 11 10 10 11 11 12 11 12 11 10 8 7 7 6 6 8 8 7
10 11 11 11 10 10 10 9 10 10 9 8 9 9 9 10 9 9 9 8 7 7 9 11 11 11 11 11 11 11 12 13 13 12 10 10 9 7 7 6 6 6 4
10 11 11 10 10 10 10 10 10 10 9 9 9 9 9 7 7 8 7 8 7 8 9 10 11 11 11 11 11 11 12 11 12 13 12 9 9 8 8 7 6 5 5
10 11 11 11 10 10 10 10 10 10 9 9 9 8 8 7 7 7 7 7 7 8 10 10 10 11 11 11 12 11 12 12 12 12 12 10 9 8 8 8 7 7 6
11 12 11 11 10 9 9 9 10 10 9 9 7 5 6 7 7 6 7 8 8 8 8 9 10 11 11 11 11 11 11 12 11 9 11 11 9 9 8 8 8 7 7
12 12 11 11 10 10 9 8 8 8 7 6 6 5 5 5 6 6 7 8 8 7 7 8 8 9 10 11 11 11 11 12 11 11 11 11 10 9 8 8 8 7 7
13 12 12 12 11 10 9 9 8 8 7 6 5 5 5 5 5 5 6 7 7 6 6 7 8 8 9 9 10 10 11 11 12 11 11 11 9 10 9 8 9 8 8
13 12 12 11 11 10 9 9 8 8 7 6 5 5 5 4 4 5 5 6 6 6 5 6 7 7 8 9 8 8 10 11 12 12 11 11 11 11 9 9 9 8 7
12 12 12 11 11 10 9 9 8 8 7 6 5 5 5 5 4 4 5 5 4 4 5 6 7 7 7 8 8 8 8 9 10 11 11 11 11 11 11 9 9 8 8
11 12 12 11 11 10 9 8 8 8 7 6 5 6 6 5 4 3 3 3 3 4 4 5 6 6 6 6 7 7 7 8 8 9 10 10 10 11 10 8 9 9 8
11 11 11 11 10 10 9 8 8 8 6 5 5 6 5 4 3 3 3 3 3 4 4 5 5 6 5 6 7 7 7 8 8 8 9 9 10 11 11 10 10 10 10
11 11 11 10 10 9 7 8 8 7 6 5 5 5 5 5 4 3 3 3 4 4 4 4 4 5 5 5 6 7 7 7 7 8 8 8 9 10 9 9 9 9 9
10 10 10 10 9 8 7 8 8 7 6 5 5 5 5 5 5 4 3 4 4 4 4 4 5 5 5 5 6 5 6 6 7 7 8 8 9 9 9 8 8 7 7
10 10 10 9 8 8 8 8 7 6 6 6 6 5 5 6 5 5 5 5 5 4 5 4 5 5 5 5 5 6 4 5 6 6 7 8 9 10 11 9 8 7 5
9 9 9 9 8 8 8 7 6 7 7 7 6 6 6 6 6 6 6 5 5 5 5 5 5 5 5 5 5 5 3 4 4 4 5 8 9 10 12 10 9 8 6
9 9 8 8 8 8 7 7 7 7 7 7 7 6 6 6 6 6 6 6 5 5 5 5 5 5 5 5 5 5 2 3 3 3 4 5 9 9 10 10 9 9 7
9 9 8 8 8 7 7 7 7 8 7 7 7 6 6 6 5 6 6 6 5 5 5 5 5 4 4 4 4 5 5 3 3 3 4 5 8 8 8 7 8 10 8
9 8 8 8 7 7 6 8 8 7 7 7 7 6 6 5 5 6 6 5 5 4 4 4 4 4 3 3 3 4 4 4 2 3 3 5 7 7 6 7 9 8 6
8 7 7 8 8 7 7 7 7 6 6 7 7 6 6 6 6 5 5 5 5 4 4 4 4 4 3 3 3 3 3 2 1 1 2 5 6 5 5 5 6 4 5
7 7 7 8 8 7 7 7 6 6 6 7 7 6 5 5 5 5 5 5 5 5 5 5 4 4 4 4 5 4 4 3 2 1 1 3 4 4 3 3 3 3 4
7 7 8 8 8 7 7 6 6 6 6 6 6 6 5 5 5 5 5 5 6 7 7 7 6 6 6 6 6 6 5 3 2 2 3 4 4 4 4 4 3 3 3
Wind_Direction
316 317 312 308 303 298 299 294 289 283 278 273 268 262 256 242 234 233 229 218 215 213 213 212 213 214 214 216 218 217 215 214 206 208 216 222 220 216 213 210 211 210 210
320 322 319 317 310 308 301 294 285 280 275 272 265 256 256 248 241 239 233 222 217 215 215 212 212 216 218 219 219 215 214 216 206 207 203 212 215 216 216 211 211 210 205
316 319 318 315 312 308 304 298 287 281 277 274 268 264 260 251 244 239 237 228 222 221 220 220 216 217 218 219 218 218 217 214 212 212 211 209 214 200 204 211 209 209 207
314 315 313 312 308 306 304 295 287 283 279 273 264 258 252 253 248 242 239 234 226 223 223 224 222 219 220 220 220 221 223 215 215 216 224 229 218 205 199 204 208 208 211
316 314 312 309 307 308 308 300 297 289 282 270 262 256 251 255 251 246 241 236 231 226 224 225 224 222 223 223 223 223 224 219 220 219 217 220 217 220 216 213 204 208 213
313 315 317 312 313 316 315 312 303 293 286 273 264 258 253 253 250 250 247 238 234 233 228 225 226 223 222 222 223 225 225 223 223 222 220 217 211 210 213 218 210 211 210
320 320 321 318 316 317 315 311 305 298 288 277 269 262 258 253 245 248 247 242 239 238 236 231 226 224 223 222 222 224 225 224 225 225 225 224 223 219 216 219 218 221 220
320 318 319 316 312 309 309 309 305 301 294 281 273 264 260 253 247 245 244 243 241 239 237 237 232 226 225 223 222 225 225 224 226 227 226 225 225 221 217 215 210 214 226
324 320 315 315 314 311 307 304 305 303 297 287 275 261 260 253 247 246 247 247 248 245 238 234 233 229 226 225 225 227 225 224 225 224 223 224 225 222 221 218 213 212 221
326 325 322 319 318 315 309 308 305 299 295 287 283 264 255 252 246 246 251 253 252 249 244 238 235 233 228 226 227 229 226 226 225 221 221 222 223 221 219 215 216 220 224
325 326 326 325 324 321 317 314 309 304 300 293 291 280 266 262 250 246 250 252 251 249 244 242 236 233 233 229 229 228 224 225 223 219 220 222 222 221 218 215 212 214 216
322 323 325 326 327 325 325 323 318 315 314 305 298 292 284 270 257 256 259 256 254 246 241 242 239 237 237 234 231 231 225 223 222 220 221 223 221 220 217 213 212 211 212
322 323 327 327 328 327 325 324 324 326 327 322 310 302 295 281 268 266 270 269 257 249 243 243 242 243 243 239 235 235 234 227 224 220 222 224 219 219 215 212 211 208 206
323 326 328 328 328 327 327 324 326 330 330 329 325 310 302 292 284 280 281 278 269 257 249 250 248 246 244 241 238 235 237 236 232 224 223 224 220 219 215 211 210 204 197
325 327 328 327 327 328 329 328 327 329 329 326 324 317 311 300 292 288 288 288 283 278 265 260 258 251 245 243 243 237 236 238 240 231 226 224 218 218 215 210 205 199 195
321 323 324 323 324 326 327 327 326 326 326 326 322 323 321 314 308 306 306 296 288 287 283 271 260 255 256 253 253 242 241 240 240 234 231 224 217 210 211 209 205 201 197
315 316 317 319 319 321 324 323 322 322 326 331 330 329 326 327 315 309 302 300 299 296 287 281 268 262 258 259 263 253 248 243 241 235 230 227 213 205 209 206 200 200 203
307 310 312 314 315 317 319 318 319 322 323 323 324 327 330 328 324 317 313 310 303 293 288 280 276 276 270 269 272 279 253 253 247 242 230 218 211 204 199 201 202 205 210
302 303 305 305 308 312 315 316 318 322 322 322 322 323 322 320 324 322 314 310 305 301 295 287 276 276 275 273 277 286 256 248 248 241 229 216 209 194 186 191 192 197 204
302 302 304 303 305 311 315 314 314 315 315 313 310 310 309 308 309 310 308 302 298 296 296 289 279 273 271 276 283 296 265 246 243 244 231 205 200 191 186 193 190 195 195
301 303 300 299 301 308 311 308 309 308 310 312 307 304 304 302 300 302 303 302 300 299 299 293 285 278 276 281 287 302 295 249 243 242 226 205 189 190 192 196 197 190 181
299 301 297 297 300 304 304 303 305 307 311 311 306 302 302 302 301 300 301 301 300 297 298 294 291 286 279 279 287 304 306 286 239 235 226 205 185 189 192 195 183 169 166
298 297 295 297 300 302 301 298 303 308 310 311 309 308 308 305 302 303 305 305 303 299 298 298 290 292 298 300 294 304 316 315 274 230 216 198 182 183 185 174 169 168 169
294 296 295 296 298 301 302 300 307 306 305 307 309 309 307 307 307 303 298 296 293 292 296 298 295 294 295 300 308 315 324 323 291 204 172 165 163 168 169 164 161 169 173
293 290 288 290 293 300 302 304 307 308 304 304 308 308 305 302 305 304 298 292 288 278 280 286 291 287 283 289 301 301 298 290 254 211 192 167 164 163 162 159 155 155 161
290 286 286 287 293 297 298 301 305 303 300 301 305 306 303 299 298 303 308 300 283 288 282 277 281 281 277 288 296 306 306 279 207 175 173 173 173 174 171 168 163 158 161
Height
1462 1460 1458 1456 1453 1451 1449 1447 1445 1444 1443 1443 1443 1443 1443 1444 1445 1446 1446 1448 1449 1451 1453 1454 1456 1458 1460 1462 1464 1466 1468 1470 1472 1475 1476 1478 1479 1480 1481 1483 1485 1487 1488
1459 1457 1455 1452 1450 1447 1445 1443 1441 1440 1440 1439 1438 1438 1439 1439 1440 1441 1441 1442 1444 1445 1447 1449 1451 1453 1455 1457 1460 1461 1463 1465 1467 1470 1472 1474 1475 1474 1476 1477 1480 1482 1483
1457 1454 1451 1449 1446 1443 1441 1439 1437 1436 1435 1435 1434 1434 1434 1434 1434 1435 1435 1437 1439 1440 1442 1444 1446 1448 1450 1452 1454 1456 1458 1460 1462 1465 1467 1468 1468 1470 1471 1472 1474 1476 1478
1454 1452 1448 1445 1443 1440 1437 1435 1433 1432 1431 1430 1429 1429 1428 1428 1429 1430 1431 1433 1434 1436 1437 1439 1441 1442 1444 1447 1449 1451 1453 1455 1457 1459 1461 1463 1463 1465 1465 1467 1468 1470 1472
1452 1449 1445 1442 1439 1436 1433 1431 1428 1427 1426 1425 1425 1424 1424 1424 1425 1426 1426 1428 1429 1431 1432 1434 1435 1437 1439 1441 1443 1445 1447 1449 1451 1453 1454 1456 1458 1459 1460 1461 1463 1465 1467
1448 1445 1442 1439 1435 1432 1429 1426 1424 1422 1421 1420 1419 1419 1419 1419 1419 1420 1420 1422 1423 1424 1426 1428 1429 1431 1433 1435 1437 1439 1441 1443 1445 1447 1449 1450 1452 1453 1455 1456 1457 1459 1461
1445 1441 1438 1435 1431 1428 1424 1422 1419 1417 1416 1415 1413 1413 1413 1414 1414 1414 1415 1416 1417 1418 1420 1421 1423 1425 1427 1429 1431 1433 1435 1437 1439 1441 1443 1445 1447 1449 1450 1452 1453 1454 1456
1442 1439 1435 1432 1428 1424 1420 1417 1414 1412 1411 1409 1408 1408 1408 1409 1409 1409 1410 1410 1411 1412 1414 1415 1417 1419 1421 1423 1425 1427 1428 1431 1433 1434 1436 1439 1441 1443 1444 1446 1448 1449 1450
1439 1435 1432 1428 1424 1420 1417 1413 1410 1407 1405 1403 1403 1402 1403 1403 1403 1404 1405 1405 1406 1407 1408 1409 1411 1412 1414 1416 1419 1420 1422 1424 1426 1428 1430 1432 1434 1437 1439 1441 1442 1444 1444
1436 1433 1429 1425 1421 1417 1414 1410 1407 1404 1401 1399 1397 1397 1398 1398 1399 1399 1400 1400 1401 1401 1402 1403 1404 1406 1408 1410 1412 1414 1416 1418 1419 1421 1424 1426 1428 1431 1432 1434 1437 1438 1440
1433 1429 1425 1422 1418 1414 1410 1407 1404 1401 1398 1396 1394 1394 1394 1394 1394 1394 1395 1395 1396 1396 1397 1398 1398 1400 1401 1404 1405 1407 1409 1411 1412 1415 1417 1419 1422 1424 1426 1428 1430 1432 1435
1432 1428 1424 1419 1415 1411 1407 1404 1401 1398 1395 1393 1392 1391 1391 1391 1390 1390 1390 1391 1391 1391 1392 1392 1393 1394 1396 1397 1399 1401 1402 1404 1406 1409 1411 1413 1416 1418 1420 1422 1424 1426 1429
1430 1426 1421 1417 1413 1409 1405 1402 1398 1396 1393 1392 1390 1389 1388 1388 1387 1387 1386 1386 1386 1386 1387 1388 1388 1389 1390 1391 1393 1395 1397 1398 1400 1403 1405 1407 1410 1411 1414 1416 1418 1420 1423
1428 1424 1419 1415 1411 1407 1404 1400 1397 1394 1391 1389 1388 1386 1385 1384 1384 1383 1382 1382 1382 1382 1382 1383 1384 1384 1385 1386 1387 1389 1391 1393 1394 1396 1399 1401 1403 1405 1408 1410 1412 1414 1417
1426 1422 1418 1413 1409 1405 1402 1398 1395 1392 1390 1388 1386 1384 1383 1382 1381 1380 1379 1379 1379 1379 1379 1380 1380 1380 1381 1381 1382 1383 1385 1386 1388 1390 1392 1395 1397 1399 1402 1405 1406 1409 1411
1424 1420 1416 1412 1408 1404 1400 1397 1394 1391 1389 1386 1384 1382 1381 1379 1378 1377 1377 1376 1376 1376 1376 1376 1376 1376 1377 1377 1378 1379 1379 1381 1382 1383 1386 1388 1391 1393 1396 1399 1401 1403 1405
1422 1418 1414 1410 1406 1403 1399 1396 1393 1390 1388 1386 1384 1381 1379 1378 1376 1375 1375 1374 1373 1373 1373 1373 1372 1372 1372 1373 1373 1374 1375 1375 1376 1378 1380 1382 1384 1387 1389 1392 1395 1398 1400
1419 1416 1412 1408 1404 1401 1398 1395 1391 1389 1387 1385 1383 1380 1378 1376 1375 1373 1372 1371 1370 1370 1369 1369 1369 1368 1368 1368 1369 1369 1370 1370 1370 1371 1373 1376 1378 1381 1384 1387 1390 1392 1395
1417 1414 1410 1407 1403 1399 1396 1393 1390 1388 1385 1383 1381 1379 1377 1375 1373 1371 1370 1369 1368 1367 1366 1365 1365 1364 1364 1364 1364 1364 1364 1364 1365 1366 1367 1369 1372 1375 1379 1382 1384 1386 1389
1414 1411 1407 1404 1401 1398 1395 1392 1389 1386 1384 1381 1379 1377 1375 1373 1371 1369 1368 1366 1365 1364 1363 1362 1361 1361 1360 1360 1360 1360 1359 1359 1359 1360 1362 1364 1367 1370 1373 1376 1379 1381 1383
1410 1408 1405 1402 1399 1396 1393 1390 1388 1385 1382 1380 1377 1375 1373 1371 1369 1367 1365 1364 1362 1361 1360 1359 1358 1358 1357 1356 1356 1356 1356 1356 1356 1356 1357 1360 1363 1366 1369 1372 1375 1376 1379
1407 1404 1402 1399 1397 1394 1391 1388 1386 1384 1381 1378 1375 1373 1371 1368 1366 1365 1363 1361 1360 1358 1357 1356 1355 1354 1354 1353 1352 1352 1352 1352 1352 1353 1354 1356 1359 1362 1365 1368 1370 1373 1376
1403 1401 1398 1396 1393 1391 1389 1386 1384 1381 1378 1376 1373 1371 1368 1366 1364 1363 1361 1359 1358 1356 1354 1353 1352 1351 1351 1350 1349 1349 1348 1348 1349 1349 1351 1353 1356 1359 1361 1364 1367 1369 1371
1400 1397 1395 1392 1390 1388 1386 1384 1381 1379 1376 1373 1371 1369 1366 1364 1362 1360 1358 1357 1355 1354 1352 1351 1349 1348 1348 1347 1346 1345 1345 1345 1346 1347 1348 1351 1353 1356 1358 1361 1363 1365 1367
1396 1394 1391 1389 1387 1385 1382 1380 1378 1376 1373 1370 1368 1366 1364 1362 1360 1358 1356 1354 1353 1352 1350 1349 1348 1346 1345 1345 1345 1344 1343 1343 1343 1344 1346 1348 1350 1352 1355 1357 1360 1362 1365
1392 1390 1387 1385 1383 1381 1379 1377 1375 1372 1370 1367 1365 1363 1361 1359 1357 1355 1353 1351 1351 1349 1348 1347 1346 1344 1344 1343 1342 1341 1341 1341 1342 1343 1344 1346 1348 1350 1352 1355 1357 1359 1361